Regional Weather Roundup
Issued by NWS

Home | Current Version | Previous Version | Text Only | Print | Product List | Glossary Off
Versions: 1 2 3 4 5 6 7 8 9 10 11 12 13 14 15 16 17 18 19 20 21 22 23 24 25 26 27 28 29 30 31 32 33 34 35 36 37 38 39 40 41 42 43 44 45 46 47 48 49 50

000
ASUS43 KFSD 251302
RWRSD

WEATHER ROUNDUP FOR SOUTH DAKOTA
NATIONAL WEATHER SERVICE SIOUX FALLS SD
800 AM CDT SAT OCT 25 2014

NOTE: "FAIR" INDICATES FEW OR NO CLOUDS BELOW 12,000 FEET WITH NO
SIGNIFICANT WEATHER AND/OR OBSTRUCTIONS TO VISIBILITY.


SDZ001>005-009-010-012>017-251400-
NORTHWEST AND NORTH CENTRAL SOUTH DAKOTA

CITY           SKY/WX    TMP DP  RH WIND       PRES   REMARKS
BUFFALO          N/A     43  29  57 CALM      30.08S
FAITH            N/A     45  31  58 CALM      30.15R
MOBRIDGE       CLEAR     41  34  76 N8        30.12R
$$

SDZ012>016-024>037-041>051-057-063-072>074-251400-
SOUTHWEST AND SOUTH CENTRAL SOUTH DAKOTA

CITY           SKY/WX    TMP DP  RH WIND       PRES   REMARKS
RAPID CTY ARPT CLEAR     35  29  78 NW5       30.16S
PIERRE         CLEAR     41  34  76 W6        30.14R
CUSTER         CLEAR     33  28  81 NW5       30.20S WCI  29
ELLSWORTH AFB  CLEAR     39  30  70 NW2       30.16S
PHILIP         CLEAR     32  29  88 W6        30.17R WCI  26
PINE RIDGE     CLEAR     28  26  92 CALM      30.18R
SPEARFISH      FAIR      36  30  80 SW3       30.15S
WINNER         FAIR      44  34  67 W5        30.14S
$$

SDZ004>011-016>023-039-040-251400-
NORTHEAST SOUTH DAKOTA

CITY           SKY/WX    TMP DP  RH WIND       PRES   REMARKS
ABERDEEN       CLEAR     38  31  76 W5        30.13R
WATERTOWN      MOCLDY    44  37  76 NW3       30.10S
SISSETON         N/A     51  33  50 N8        30.09R
$$

SDZ017-020-022-023-036>040-048>070-251400-
SOUTHEAST SOUTH DAKOTA

CITY           SKY/WX    TMP DP  RH WIND       PRES   REMARKS
SIOUX FALLS    PTCLDY    42  38  85 CALM      30.11R
HURON          PTCLDY    40  35  83 NW6       30.12R
CHAMBERLAIN    CLEAR     40  35  84 W3        30.14S
MITCHELL       CLEAR     43  38  82 W5        30.13R
YANKTON        CLEAR     43  37  81 NW5       30.13S
$$

ABBREVIATIONS USED IN REMARKS
   TC - TEMPERATURE IN CELSIUS
  WCI - WIND CHILL INDEX
   HX - HEAT INDEX
  VSB - VISIBILITY




USA.gov is the U.S. government's official web portal to all federal, state and local government web resources and services.